contact:dominique.lefevre@mio.osupytheas.fr, maurice.libes@osupytheas.fr, didier.mallarino@osupytheas.fr
Project:EMSO http://www.emso-fr.org/EMSO-France
Depth: 2436.0 m
Title:EMSO Ligure Ouest : Data MII capteur MICROCAT
DateTime_Computer,Latitude,Longitude,Temperature,Conductivity,Pressure,DateTime_Instrument
DateTime_Computer,Latitude,Longitude,degC,S m-1,dbar,DateTime_Instrument
2019-06-29T00:02:05Z,42.805,6.029,13.2995,4.59996,2469.821,2019-6-29T02:02:22Z
2019-06-29T00:05:08Z,42.805,6.029,13.2981,4.60021,2469.821,2019-6-29T02:05:25Z
2019-06-29T00:08:11Z,42.805,6.029,13.2992,4.60029,2469.806,2019-6-29T02:08:28Z
2019-06-29T00:11:14Z,42.805,6.029,13.3004,4.60029,2469.821,2019-6-29T02:11:31Z
2019-06-29T00:14:17Z,42.805,6.029,13.2986,4.60042,2469.821,2019-6-29T02:14:34Z
2019-06-29T00:17:20Z,42.805,6.029,13.2967,4.60011,2469.83,2019-6-29T02:17:37Z
2019-06-29T00:20:23Z,42.805,6.029,13.2960,4.59985,2469.821,2019-6-29T02:20:40Z
2019-06-29T00:23:25Z,42.805,6.029,13.2974,4.60001,2469.844,2019-6-29T02:23:43Z
2019-06-29T00:26:28Z,42.805,6.029,13.2969,4.60003,2469.844,2019-6-29T02:26:46Z
2019-06-29T00:29:31Z,42.805,6.029,13.2967,4.59995,2469.83,2019-6-29T02:29:49Z
2019-06-29T00:32:34Z,42.805,6.029,13.2972,4.59995,2469.83,2019-6-29T02:32:51Z
2019-06-29T00:35:37Z,42.805,6.029,13.2983,4.60008,2469.797,2019-6-29T02:35:54Z
2019-06-29T00:38:40Z,42.805,6.029,13.2964,4.59986,2469.844,2019-6-29T02:38:57Z
2019-06-29T00:41:43Z,42.805,6.029,13.2971,4.59995,2469.821,2019-6-29T02:42:00Z
2019-06-29T00:44:46Z,42.805,6.029,13.2967,4.59988,2469.844,2019-6-29T02:45:03Z
2019-06-29T00:47:49Z,42.805,6.029,13.2967,4.60006,2469.806,2019-6-29T02:48:06Z
2019-06-29T00:50:52Z,42.805,6.029,13.2967,4.60010,2469.821,2019-6-29T02:51:09Z
2019-06-29T00:53:55Z,42.805,6.029,13.2971,4.60014,2469.867,2019-6-29T02:54:12Z
2019-06-29T00:56:58Z,42.805,6.029,13.2974,4.60014,2469.83,2019-6-29T02:57:15Z
2019-06-29T01:00:01Z,42.805,6.029,13.2974,4.60018,2469.867,2019-6-29T03:00:18Z
2019-06-29T01:03:04Z,42.805,6.029,13.2980,4.60026,2469.844,2019-6-29T03:03:21Z
2019-06-29T01:06:07Z,42.805,6.029,13.2978,4.60016,2469.844,2019-6-29T03:06:24Z
2019-06-29T01:09:10Z,42.805,6.029,13.2985,4.60023,2469.844,2019-6-29T03:09:27Z
2019-06-29T01:12:13Z,42.805,6.029,13.2997,4.60022,2469.853,2019-6-29T03:12:30Z
2019-06-29T01:15:16Z,42.805,6.029,13.2972,4.60006,2469.83,2019-6-29T03:15:33Z
2019-06-29T01:18:19Z,42.805,6.029,13.2973,4.60039,2469.867,2019-6-29T03:18:36Z
2019-06-29T01:21:22Z,42.805,6.029,13.2982,4.60018,2469.83,2019-6-29T03:21:39Z
2019-06-29T01:24:24Z,42.805,6.029,13.2976,4.60031,2469.83,2019-6-29T03:24:42Z
2019-06-29T01:27:27Z,42.805,6.029,13.2974,4.60030,2469.867,2019-6-29T03:27:45Z
2019-06-29T01:30:30Z,42.805,6.029,13.2975,4.60031,2469.844,2019-6-29T03:30:47Z
2019-06-29T01:33:33Z,42.805,6.029,13.2974,4.59999,2469.853,2019-6-29T03:33:50Z
2019-06-29T01:36:36Z,42.805,6.029,13.2970,4.59996,2469.867,2019-6-29T03:36:53Z
2019-06-29T01:39:39Z,42.805,6.029,13.2965,4.59997,2469.876,2019-6-29T03:39:56Z
2019-06-29T01:42:42Z,42.805,6.029,13.2968,4.60011,2469.867,2019-6-29T03:42:59Z
2019-06-29T01:45:45Z,42.805,6.029,13.2967,4.60040,2469.867,2019-6-29T03:46:02Z
2019-06-29T01:48:48Z,42.805,6.029,13.2979,4.60024,2469.853,2019-6-29T03:49:05Z
2019-06-29T01:51:51Z,42.805,6.029,13.2977,4.60014,2469.876,2019-6-29T03:52:08Z
2019-06-29T01:54:54Z,42.805,6.029,13.2965,4.60011,2469.853,2019-6-29T03:55:11Z
2019-06-29T01:57:57Z,42.805,6.029,13.2979,4.60003,2469.89,2019-6-29T03:58:14Z
2019-06-29T02:01:00Z,42.805,6.029,13.2976,4.60043,2469.844,2019-6-29T04:01:17Z
2019-06-29T02:04:03Z,42.805,6.029,13.2974,4.60011,2469.853,2019-6-29T04:04:20Z
2019-06-29T02:07:06Z,42.805,6.029,13.2971,4.59998,2469.853,2019-6-29T04:07:23Z
2019-06-29T02:10:09Z,42.805,6.029,13.2973,4.60010,2469.89,2019-6-29T04:10:26Z
2019-06-29T02:13:12Z,42.805,6.029,13.2973,4.60022,2469.89,2019-6-29T04:13:29Z
2019-06-29T02:16:15Z,42.805,6.029,13.2975,4.60009,2469.821,2019-6-29T04:16:32Z
2019-06-29T02:19:18Z,42.805,6.029,13.2974,4.60010,2469.876,2019-6-29T04:19:35Z
2019-06-29T02:22:20Z,42.805,6.029,13.2974,4.60025,2469.89,2019-6-29T04:22:38Z
2019-06-29T02:25:23Z,42.805,6.029,13.2979,4.60021,2469.9,2019-6-29T04:25:41Z
2019-06-29T02:28:26Z,42.805,6.029,13.2968,4.60014,2469.89,2019-6-29T04:28:44Z
2019-06-29T02:31:29Z,42.805,6.029,13.2974,4.59990,2469.876,2019-6-29T04:31:46Z
2019-06-29T02:34:32Z,42.805,6.029,13.2983,4.60005,2469.867,2019-6-29T04:34:49Z
2019-06-29T02:37:35Z,42.805,6.029,13.2971,4.60014,2469.914,2019-6-29T04:37:52Z
2019-06-29T02:40:38Z,42.805,6.029,13.2978,4.60046,2469.89,2019-6-29T04:40:55Z
2019-06-29T02:43:41Z,42.805,6.029,13.2993,4.60041,2469.9,2019-6-29T04:43:58Z
2019-06-29T02:46:44Z,42.805,6.029,13.2994,4.60046,2469.914,2019-6-29T04:47:01Z
2019-06-29T02:49:47Z,42.805,6.029,13.3001,4.60012,2469.876,2019-6-29T04:50:04Z
2019-06-29T02:52:50Z,42.805,6.029,13.2981,4.60043,2469.876,2019-6-29T04:53:07Z
2019-06-29T02:55:53Z,42.805,6.029,13.2978,4.60019,2469.876,2019-6-29T04:56:10Z
2019-06-29T02:58:56Z,42.805,6.029,13.2974,4.60014,2469.914,2019-6-29T04:59:13Z
2019-06-29T03:01:59Z,42.805,6.029,13.2979,4.60026,2469.914,2019-6-29T05:02:16Z
2019-06-29T03:05:02Z,42.805,6.029,13.2972,4.59997,2469.853,2019-6-29T05:05:19Z
2019-06-29T03:08:05Z,42.805,6.029,13.2971,4.60014,2469.886,2019-6-29T05:08:22Z
2019-06-29T03:11:08Z,42.805,6.029,13.2969,4.60008,2469.9,2019-6-29T05:11:25Z
2019-06-29T03:14:11Z,42.805,6.029,13.2970,4.60016,2469.876,2019-6-29T05:14:28Z
2019-06-29T03:17:14Z,42.805,6.029,13.2992,4.60014,2469.937,2019-6-29T05:17:31Z
2019-06-29T03:20:17Z,42.805,6.029,13.2968,4.60014,2469.89,2019-6-29T05:20:34Z
2019-06-29T03:23:19Z,42.805,6.029,13.2977,4.60035,2469.9,2019-6-29T05:23:37Z
2019-06-29T03:26:22Z,42.805,6.029,13.2974,4.60042,2469.89,2019-6-29T05:26:40Z
2019-06-29T03:29:25Z,42.805,6.029,13.2983,4.60033,2469.937,2019-6-29T05:29:43Z
2019-06-29T03:32:28Z,42.805,6.029,13.2971,4.60019,2469.9,2019-6-29T05:32:45Z
2019-06-29T03:35:31Z,42.805,6.029,13.2971,4.60008,2469.914,2019-6-29T05:35:48Z
2019-06-29T03:38:34Z,42.805,6.029,13.2972,4.59999,2469.89,2019-6-29T05:38:51Z
2019-06-29T03:41:37Z,42.805,6.029,13.2968,4.60015,2469.9,2019-6-29T05:41:54Z
2019-06-29T03:44:40Z,42.805,6.029,13.2968,4.60019,2469.89,2019-6-29T05:44:57Z
2019-06-29T03:47:43Z,42.805,6.029,13.2980,4.60014,2469.914,2019-6-29T05:48:00Z
2019-06-29T03:50:46Z,42.805,6.029,13.2976,4.59998,2469.923,2019-6-29T05:51:03Z
2019-06-29T03:53:49Z,42.805,6.029,13.2963,4.60015,2469.923,2019-6-29T05:54:06Z
2019-06-29T03:56:52Z,42.805,6.029,13.2973,4.60016,2469.9,2019-6-29T05:57:09Z
2019-06-29T03:59:55Z,42.805,6.029,13.2967,4.60013,2469.923,2019-6-29T06:00:12Z
2019-06-29T04:02:58Z,42.805,6.029,13.2975,4.60027,2469.9,2019-6-29T06:03:15Z
2019-06-29T04:06:01Z,42.805,6.029,13.2967,4.60003,2469.914,2019-6-29T06:06:18Z
2019-06-29T04:09:04Z,42.805,6.029,13.2971,4.60000,2469.914,2019-6-29T06:09:21Z
2019-06-29T04:12:07Z,42.805,6.029,13.2971,4.60059,2469.9,2019-6-29T06:12:24Z
2019-06-29T04:15:10Z,42.805,6.029,13.2964,4.60049,2469.9,2019-6-29T06:15:27Z
2019-06-29T04:18:13Z,42.805,6.029,13.2971,4.60019,2469.923,2019-6-29T06:18:30Z
2019-06-29T04:21:15Z,42.805,6.029,13.2964,4.60008,2469.886,2019-6-29T06:21:33Z
2019-06-29T04:24:18Z,42.805,6.029,13.2978,4.60021,2469.9,2019-6-29T06:24:36Z
2019-06-29T04:27:21Z,42.805,6.029,13.2974,4.60026,2469.914,2019-6-29T06:27:38Z
2019-06-29T04:30:24Z,42.805,6.029,13.2977,4.60047,2469.876,2019-6-29T06:30:41Z
2019-06-29T04:33:27Z,42.805,6.029,13.2978,4.60021,2469.9,2019-6-29T06:33:44Z
2019-06-29T04:36:30Z,42.805,6.029,13.2979,4.60018,2469.89,2019-6-29T06:36:47Z
2019-06-29T04:39:33Z,42.805,6.029,13.2973,4.60029,2469.9,2019-6-29T06:39:50Z
2019-06-29T04:42:36Z,42.805,6.029,13.2968,4.60038,2469.937,2019-6-29T06:42:53Z
2019-06-29T04:45:39Z,42.805,6.029,13.2971,4.60009,2469.914,2019-6-29T06:45:56Z
2019-06-29T04:48:42Z,42.805,6.029,13.2983,4.60012,2469.89,2019-6-29T06:48:59Z
2019-06-29T04:51:45Z,42.805,6.029,13.2967,4.60011,2469.914,2019-6-29T06:52:02Z
2019-06-29T04:54:48Z,42.805,6.029,13.2975,4.60014,2469.853,2019-6-29T06:55:05Z
2019-06-29T04:57:51Z,42.805,6.029,13.2978,4.60013,2469.923,2019-6-29T06:58:08Z
2019-06-29T05:00:54Z,42.805,6.029,13.2964,4.60016,2469.876,2019-6-29T07:01:11Z
2019-06-29T05:03:57Z,42.805,6.029,13.2972,4.60018,2469.914,2019-6-29T07:04:14Z
2019-06-29T05:07:00Z,42.805,6.029,13.2978,4.59981,2469.9,2019-6-29T07:07:17Z
2019-06-29T05:10:03Z,42.805,6.029,13.2971,4.60001,2469.9,2019-6-29T07:10:20Z
2019-06-29T05:13:06Z,42.805,6.029,13.2969,4.60005,2469.876,2019-6-29T07:13:23Z
2019-06-29T05:16:09Z,42.805,6.029,13.2964,4.60009,2469.876,2019-6-29T07:16:26Z
2019-06-29T05:19:11Z,42.805,6.029,13.2982,4.60014,2469.876,2019-6-29T07:19:29Z
2019-06-29T05:22:14Z,42.805,6.029,13.2967,4.60026,2469.867,2019-6-29T07:22:32Z
2019-06-29T05:25:17Z,42.805,6.029,13.2970,4.60008,2469.9,2019-6-29T07:25:35Z
2019-06-29T05:28:20Z,42.805,6.029,13.2966,4.60000,2469.914,2019-6-29T07:28:37Z
2019-06-29T05:31:23Z,42.805,6.029,13.2968,4.60001,2469.9,2019-6-29T07:31:40Z
2019-06-29T05:34:26Z,42.805,6.029,13.2983,4.60015,2469.923,2019-6-29T07:34:43Z
2019-06-29T05:37:29Z,42.805,6.029,13.2972,4.60019,2469.914,2019-6-29T07:37:46Z
2019-06-29T05:40:32Z,42.805,6.029,13.2964,4.60007,2469.89,2019-6-29T07:40:49Z
2019-06-29T05:43:35Z,42.805,6.029,13.2972,4.59996,2469.914,2019-6-29T07:43:52Z
2019-06-29T05:46:38Z,42.805,6.029,13.2984,4.59997,2469.876,2019-6-29T07:46:55Z
2019-06-29T05:49:41Z,42.805,6.029,13.2968,4.59991,2469.876,2019-6-29T07:49:58Z
2019-06-29T05:52:44Z,42.805,6.029,13.2962,4.59986,2469.89,2019-6-29T07:53:01Z
2019-06-29T05:55:47Z,42.805,6.029,13.2970,4.59999,2469.876,2019-6-29T07:56:04Z
2019-06-29T05:58:50Z,42.805,6.029,13.2978,4.60006,2469.89,2019-6-29T07:59:07Z
2019-06-29T06:01:53Z,42.805,6.029,13.2976,4.60009,2469.876,2019-6-29T08:02:10Z
2019-06-29T06:04:56Z,42.805,6.029,13.2967,4.60026,2469.83,2019-6-29T08:05:13Z
2019-06-29T06:07:59Z,42.805,6.029,13.2974,4.60011,2469.914,2019-6-29T08:08:16Z
2019-06-29T06:11:02Z,42.805,6.029,13.2973,4.60003,2469.9,2019-6-29T08:11:19Z
2019-06-29T06:14:05Z,42.805,6.029,13.2968,4.60023,2469.9,2019-6-29T08:14:22Z
2019-06-29T06:17:08Z,42.805,6.029,13.2974,4.60002,2469.876,2019-6-29T08:17:25Z
2019-06-29T06:20:10Z,42.805,6.029,13.2966,4.59985,2469.89,2019-6-29T08:20:28Z
2019-06-29T06:23:13Z,42.805,6.029,13.2970,4.59987,2469.89,2019-6-29T08:23:31Z
2019-06-29T06:26:16Z,42.805,6.029,13.2973,4.59997,2469.853,2019-6-29T08:26:34Z
2019-06-29T06:29:19Z,42.805,6.029,13.2971,4.60021,2469.867,2019-6-29T08:29:36Z
2019-06-29T06:32:22Z,42.805,6.029,13.2967,4.60014,2469.853,2019-6-29T08:32:39Z
2019-06-29T06:35:25Z,42.805,6.029,13.2972,4.60003,2469.853,2019-6-29T08:35:42Z
2019-06-29T06:38:28Z,42.805,6.029,13.2982,4.60009,2469.9,2019-6-29T08:38:45Z
2019-06-29T06:41:31Z,42.805,6.029,13.2974,4.59995,2469.853,2019-6-29T08:41:48Z
2019-06-29T06:44:34Z,42.805,6.029,13.2968,4.60009,2469.853,2019-6-29T08:44:51Z
2019-06-29T06:47:37Z,42.805,6.029,13.2970,4.60011,2469.89,2019-6-29T08:47:54Z
2019-06-29T06:50:40Z,42.805,6.029,13.2969,4.60020,2469.806,2019-6-29T08:50:57Z
2019-06-29T06:53:43Z,42.805,6.029,13.2971,4.60001,2469.867,2019-6-29T08:54:00Z
2019-06-29T06:56:46Z,42.805,6.029,13.2961,4.59979,2469.867,2019-6-29T08:57:03Z
2019-06-29T06:59:49Z,42.805,6.029,13.2965,4.59976,2469.853,2019-6-29T09:00:06Z
2019-06-29T07:02:52Z,42.805,6.029,13.2982,4.59979,2469.876,2019-6-29T09:03:09Z
2019-06-29T07:05:55Z,42.805,6.029,13.2966,4.59986,2469.867,2019-6-29T09:06:12Z
2019-06-29T07:08:58Z,42.805,6.029,13.2961,4.59991,2469.89,2019-6-29T09:09:15Z
2019-06-29T07:12:01Z,42.805,6.029,13.2964,4.59989,2469.89,2019-6-29T09:12:18Z
2019-06-29T07:15:04Z,42.805,6.029,13.2968,4.59984,2469.844,2019-6-29T09:15:21Z
2019-06-29T07:18:06Z,42.805,6.029,13.2968,4.59991,2469.867,2019-6-29T09:18:24Z
2019-06-29T07:21:09Z,42.805,6.029,13.2976,4.60009,2469.844,2019-6-29T09:21:27Z
2019-06-29T07:24:12Z,42.805,6.029,13.2965,4.59996,2469.844,2019-6-29T09:24:30Z
2019-06-29T07:27:15Z,42.805,6.029,13.2971,4.59978,2469.867,2019-6-29T09:27:32Z
2019-06-29T07:30:18Z,42.805,6.029,13.2968,4.59984,2469.83,2019-6-29T09:30:35Z
2019-06-29T07:33:21Z,42.805,6.029,13.2965,4.59976,2469.83,2019-6-29T09:33:38Z
2019-06-29T07:36:24Z,42.805,6.029,13.2970,4.59996,2469.89,2019-6-29T09:36:41Z
2019-06-29T07:39:27Z,42.805,6.029,13.2971,4.59998,2469.867,2019-6-29T09:39:44Z
2019-06-29T07:42:30Z,42.805,6.029,13.2977,4.60002,2469.844,2019-6-29T09:42:47Z
2019-06-29T07:45:33Z,42.805,6.029,13.2968,4.60003,2469.83,2019-6-29T09:45:50Z
2019-06-29T07:48:36Z,42.805,6.029,13.2961,4.59988,2469.867,2019-6-29T09:48:53Z
2019-06-29T07:51:39Z,42.805,6.029,13.2969,4.60001,2469.806,2019-6-29T09:51:56Z
2019-06-29T07:54:42Z,42.805,6.029,13.2972,4.59997,2469.806,2019-6-29T09:54:59Z
2019-06-29T07:57:45Z,42.805,6.029,13.2975,4.60019,2469.821,2019-6-29T09:58:02Z
2019-06-29T08:00:48Z,42.805,6.029,13.2976,4.59983,2469.783,2019-6-29T10:01:05Z
2019-06-29T08:03:51Z,42.805,6.029,13.2970,4.60002,2469.806,2019-6-29T10:04:08Z
2019-06-29T08:06:54Z,42.805,6.029,13.2972,4.59986,2469.844,2019-6-29T10:07:11Z
2019-06-29T08:09:57Z,42.805,6.029,13.2964,4.60001,2469.83,2019-6-29T10:10:14Z
2019-06-29T08:13:00Z,42.805,6.029,13.2963,4.59994,2469.821,2019-6-29T10:13:17Z
2019-06-29T08:16:03Z,42.805,6.029,13.2961,4.59981,2469.844,2019-6-29T10:16:20Z
2019-06-29T08:19:06Z,42.805,6.029,13.2967,4.60003,2469.797,2019-6-29T10:19:23Z
2019-06-29T08:22:08Z,42.805,6.029,13.2961,4.59986,2469.783,2019-6-29T10:22:26Z
2019-06-29T08:25:11Z,42.805,6.029,13.2966,4.59994,2469.783,2019-6-29T10:25:29Z
2019-06-29T08:28:14Z,42.805,6.029,13.2966,4.59982,2469.821,2019-6-29T10:28:31Z
2019-06-29T08:31:17Z,42.805,6.029,13.2965,4.59998,2469.783,2019-6-29T10:31:34Z
2019-06-29T08:34:20Z,42.805,6.029,13.2966,4.59994,2469.821,2019-6-29T10:34:37Z
2019-06-29T08:37:23Z,42.805,6.029,13.2967,4.59990,2469.797,2019-6-29T10:37:40Z
2019-06-29T08:40:26Z,42.805,6.029,13.2967,4.60001,2469.773,2019-6-29T10:40:43Z
2019-06-29T08:43:29Z,42.805,6.029,13.2971,4.59981,2469.806,2019-6-29T10:43:46Z
2019-06-29T08:46:32Z,42.805,6.029,13.2967,4.59982,2469.806,2019-6-29T10:46:49Z
2019-06-29T08:49:35Z,42.805,6.029,13.2965,4.59983,2469.797,2019-6-29T10:49:52Z
2019-06-29T08:52:38Z,42.805,6.029,13.2965,4.59979,2469.797,2019-6-29T10:52:55Z
2019-06-29T08:55:41Z,42.805,6.029,13.2965,4.59978,2469.821,2019-6-29T10:55:58Z
2019-06-29T08:58:44Z,42.805,6.029,13.2962,4.59980,2469.806,2019-6-29T10:59:01Z
2019-06-29T09:01:47Z,42.805,6.029,13.2965,4.59981,2469.797,2019-6-29T11:02:04Z
2019-06-29T09:04:50Z,42.805,6.029,13.2960,4.59983,2469.783,2019-6-29T11:05:07Z
2019-06-29T09:07:53Z,42.805,6.029,13.2961,4.59979,2469.773,2019-6-29T11:08:10Z
2019-06-29T09:10:56Z,42.805,6.029,13.2964,4.59978,2469.797,2019-6-29T11:11:13Z
2019-06-29T09:13:59Z,42.805,6.029,13.2959,4.59988,2469.773,2019-6-29T11:14:16Z
2019-06-29T09:17:02Z,42.805,6.029,13.2970,4.59983,2469.783,2019-6-29T11:17:19Z
2019-06-29T09:20:05Z,42.805,6.029,13.2968,4.60013,2469.821,2019-6-29T11:20:22Z
2019-06-29T09:23:08Z,42.805,6.029,13.2979,4.60021,2469.773,2019-6-29T11:23:25Z
2019-06-29T09:26:10Z,42.805,6.029,13.2964,4.59994,2469.783,2019-6-29T11:26:28Z
2019-06-29T09:29:13Z,42.805,6.029,13.2970,4.60009,2469.773,2019-6-29T11:29:31Z
2019-06-29T09:32:16Z,42.805,6.029,13.2971,4.59999,2469.773,2019-6-29T11:32:34Z
2019-06-29T09:35:19Z,42.805,6.029,13.2967,4.59994,2469.76,2019-6-29T11:35:36Z
2019-06-29T09:38:22Z,42.805,6.029,13.2973,4.59987,2469.773,2019-6-29T11:38:39Z
2019-06-29T09:41:25Z,42.805,6.029,13.2976,4.60001,2469.773,2019-6-29T11:41:42Z
2019-06-29T09:44:28Z,42.805,6.029,13.2964,4.59991,2469.75,2019-6-29T11:44:45Z
2019-06-29T09:47:31Z,42.805,6.029,13.2968,4.59986,2469.797,2019-6-29T11:47:48Z
2019-06-29T09:50:34Z,42.805,6.029,13.2970,4.59987,2469.76,2019-6-29T11:50:51Z
2019-06-29T09:53:37Z,42.805,6.029,13.2964,4.59980,2469.773,2019-6-29T11:53:54Z
2019-06-29T09:56:40Z,42.805,6.029,13.2967,4.59991,2469.76,2019-6-29T11:56:57Z
2019-06-29T09:59:43Z,42.805,6.029,13.2963,4.60002,2469.746,2019-6-29T12:00:00Z
2019-06-29T10:02:46Z,42.805,6.029,13.2988,4.60008,2469.76,2019-6-29T12:03:03Z
2019-06-29T10:05:49Z,42.805,6.029,13.2972,4.59982,2469.75,2019-6-29T12:06:06Z
2019-06-29T10:08:52Z,42.805,6.029,13.2963,4.59978,2469.797,2019-6-29T12:09:09Z
2019-06-29T10:11:55Z,42.805,6.029,13.2976,4.59984,2469.76,2019-6-29T12:12:12Z
2019-06-29T10:14:58Z,42.805,6.029,13.2966,4.59985,2469.773,2019-6-29T12:15:15Z
2019-06-29T10:18:01Z,42.805,6.029,13.2971,4.59988,2469.76,2019-6-29T12:18:18Z
2019-06-29T10:21:04Z,42.805,6.029,13.2981,4.60011,2469.75,2019-6-29T12:21:21Z
2019-06-29T10:24:07Z,42.805,6.029,13.2964,4.59982,2469.737,2019-6-29T12:24:24Z
2019-06-29T10:27:10Z,42.805,6.029,13.2981,4.59986,2469.797,2019-6-29T12:27:27Z
2019-06-29T10:30:12Z,42.805,6.029,13.2971,4.59996,2469.773,2019-6-29T12:30:30Z
2019-06-29T10:33:15Z,42.805,6.029,13.2975,4.59989,2469.737,2019-6-29T12:33:33Z
2019-06-29T10:36:18Z,42.805,6.029,13.2979,4.59988,2469.737,2019-6-29T12:36:36Z
2019-06-29T10:39:21Z,42.805,6.029,13.2971,4.60007,2469.737,2019-6-29T12:39:39Z
2019-06-29T10:42:24Z,42.805,6.029,13.2971,4.60015,2469.75,2019-6-29T12:42:41Z
2019-06-29T10:45:27Z,42.805,6.029,13.2976,4.59999,2469.76,2019-6-29T12:45:44Z
2019-06-29T10:48:30Z,42.805,6.029,13.2996,4.60008,2469.797,2019-6-29T12:48:47Z
2019-06-29T10:51:33Z,42.805,6.029,13.3001,4.60014,2469.727,2019-6-29T12:51:50Z
2019-06-29T10:54:36Z,42.805,6.029,13.2986,4.60022,2469.773,2019-6-29T12:54:53Z
2019-06-29T10:57:39Z,42.805,6.029,13.2982,4.60020,2469.75,2019-6-29T12:57:56Z
2019-06-29T11:00:42Z,42.805,6.029,13.2986,4.59996,2469.773,2019-6-29T13:00:59Z
2019-06-29T11:03:45Z,42.805,6.029,13.2991,4.60008,2469.76,2019-6-29T13:04:02Z
2019-06-29T11:06:48Z,42.805,6.029,13.2996,4.60058,2469.76,2019-6-29T13:07:05Z
2019-06-29T11:09:51Z,42.805,6.029,13.2983,4.60001,2469.737,2019-6-29T13:10:08Z
2019-06-29T11:12:54Z,42.805,6.029,13.2968,4.59989,2469.773,2019-6-29T13:13:11Z
2019-06-29T11:15:57Z,42.805,6.029,13.2963,4.59999,2469.773,2019-6-29T13:16:14Z
2019-06-29T11:19:00Z,42.805,6.029,13.2967,4.59986,2469.75,2019-6-29T13:19:17Z
2019-06-29T11:22:03Z,42.805,6.029,13.2967,4.59991,2469.737,2019-6-29T13:22:20Z
2019-06-29T11:25:06Z,42.805,6.029,13.2964,4.59998,2469.713,2019-6-29T13:25:23Z
2019-06-29T11:28:09Z,42.805,6.029,13.2980,4.59988,2469.75,2019-6-29T13:28:26Z
2019-06-29T11:31:12Z,42.805,6.029,13.2974,4.59994,2469.75,2019-6-29T13:31:29Z
2019-06-29T11:34:15Z,42.805,6.029,13.2990,4.60011,2469.75,2019-6-29T13:34:32Z
2019-06-29T11:37:18Z,42.805,6.029,13.2997,4.60044,2469.75,2019-6-29T13:37:35Z
2019-06-29T11:40:20Z,42.805,6.029,13.2994,4.60027,2469.713,2019-6-29T13:40:38Z
2019-06-29T11:43:23Z,42.805,6.029,13.3001,4.60003,2469.737,2019-6-29T13:43:41Z
2019-06-29T11:46:26Z,42.805,6.029,13.3004,4.60017,2469.773,2019-6-29T13:46:43Z
2019-06-29T11:49:29Z,42.805,6.029,13.3004,4.60010,2469.75,2019-6-29T13:49:46Z
2019-06-29T11:52:32Z,42.805,6.029,13.3009,4.60045,2469.737,2019-6-29T13:52:49Z
2019-06-29T11:55:35Z,42.805,6.029,13.2996,4.60011,2469.76,2019-6-29T13:55:52Z
2019-06-29T11:58:38Z,42.805,6.029,13.2985,4.60033,2469.76,2019-6-29T13:58:55Z
2019-06-29T12:01:41Z,42.805,6.029,13.3007,4.60046,2469.773,2019-6-29T14:01:58Z
2019-06-29T12:04:44Z,42.805,6.029,13.2993,4.60014,2469.797,2019-6-29T14:05:01Z
2019-06-29T12:07:47Z,42.805,6.029,13.2965,4.60046,2469.773,2019-6-29T14:08:04Z
2019-06-29T12:10:50Z,42.805,6.029,13.3000,4.60039,2469.737,2019-6-29T14:11:07Z
2019-06-29T12:13:53Z,42.805,6.029,13.3011,4.60035,2469.797,2019-6-29T14:14:10Z
2019-06-29T12:16:56Z,42.805,6.029,13.3005,4.60026,2469.773,2019-6-29T14:17:13Z
2019-06-29T12:19:59Z,42.805,6.029,13.2986,4.60018,2469.737,2019-6-29T14:20:16Z
2019-06-29T12:23:02Z,42.805,6.029,13.2999,4.60004,2469.773,2019-6-29T14:23:19Z
2019-06-29T12:26:05Z,42.805,6.029,13.3007,4.60045,2469.797,2019-6-29T14:26:22Z
2019-06-29T12:29:08Z,42.805,6.029,13.3019,4.60019,2469.76,2019-6-29T14:29:25Z
2019-06-29T12:32:11Z,42.805,6.029,13.3000,4.60023,2469.783,2019-6-29T14:32:28Z
2019-06-29T12:35:14Z,42.805,6.029,13.2983,4.60052,2469.821,2019-6-29T14:35:31Z
2019-06-29T12:38:17Z,42.805,6.029,13.2976,4.60052,2469.76,2019-6-29T14:38:34Z
2019-06-29T12:41:19Z,42.805,6.029,13.2968,4.60059,2469.773,2019-6-29T14:41:37Z
2019-06-29T12:44:22Z,42.805,6.029,13.2976,4.60031,2469.797,2019-6-29T14:44:40Z
2019-06-29T12:47:25Z,42.805,6.029,13.2979,4.60021,2469.783,2019-6-29T14:47:43Z
2019-06-29T12:50:28Z,42.805,6.029,13.2984,4.60015,2469.806,2019-6-29T14:50:46Z
2019-06-29T12:53:31Z,42.805,6.029,13.2970,4.60025,2469.797,2019-6-29T14:53:48Z
2019-06-29T12:56:34Z,42.805,6.029,13.2996,4.60016,2469.797,2019-6-29T14:56:51Z
2019-06-29T12:59:37Z,42.805,6.029,13.2999,4.60037,2469.783,2019-6-29T14:59:54Z
2019-06-29T13:02:40Z,42.805,6.029,13.3019,4.59999,2469.783,2019-6-29T15:02:57Z
2019-06-29T13:05:43Z,42.805,6.029,13.3023,4.60032,2469.811,2019-6-29T15:06:00Z
2019-06-29T13:08:46Z,42.805,6.029,13.3014,4.59995,2469.821,2019-6-29T15:09:03Z
2019-06-29T13:11:49Z,42.805,6.029,13.2998,4.60024,2469.797,2019-6-29T15:12:06Z
2019-06-29T13:14:52Z,42.805,6.029,13.2994,4.60026,2469.821,2019-6-29T15:15:09Z
2019-06-29T13:17:55Z,42.805,6.029,13.2984,4.60049,2469.806,2019-6-29T15:18:12Z
2019-06-29T13:20:58Z,42.805,6.029,13.2985,4.60010,2469.783,2019-6-29T15:21:15Z
2019-06-29T13:24:01Z,42.805,6.029,13.2991,4.60064,2469.806,2019-6-29T15:24:18Z
2019-06-29T13:27:04Z,42.805,6.029,13.2980,4.59998,2469.821,2019-6-29T15:27:21Z
2019-06-29T13:30:07Z,42.805,6.029,13.2982,4.60028,2469.821,2019-6-29T15:30:24Z
2019-06-29T13:33:10Z,42.805,6.029,13.2983,4.60021,2469.821,2019-6-29T15:33:27Z
2019-06-29T13:36:13Z,42.805,6.029,13.2979,4.60002,2469.844,2019-6-29T15:36:30Z
2019-06-29T13:39:16Z,42.805,6.029,13.2978,4.60065,2469.821,2019-6-29T15:39:33Z
2019-06-29T13:42:19Z,42.805,6.029,13.2969,4.60039,2469.83,2019-6-29T15:42:36Z
2019-06-29T13:45:21Z,42.805,6.029,13.2971,4.60034,2469.783,2019-6-29T15:45:39Z
2019-06-29T13:48:24Z,42.805,6.029,13.2976,4.60030,2469.821,2019-6-29T15:48:42Z
2019-06-29T13:51:27Z,42.805,6.029,13.2990,4.60011,2469.821,2019-6-29T15:51:45Z
2019-06-29T13:54:30Z,42.805,6.029,13.2979,4.60041,2469.844,2019-6-29T15:54:47Z
2019-06-29T13:57:33Z,42.805,6.029,13.2982,4.60056,2469.83,2019-6-29T15:57:50Z
2019-06-29T14:00:36Z,42.805,6.029,13.2967,4.60040,2469.83,2019-6-29T16:00:53Z
2019-06-29T14:03:39Z,42.805,6.029,13.2991,4.60031,2469.821,2019-6-29T16:03:56Z
2019-06-29T14:06:42Z,42.805,6.029,13.2968,4.60033,2469.83,2019-6-29T16:06:59Z
2019-06-29T14:09:45Z,42.805,6.029,13.2973,4.60047,2469.83,2019-6-29T16:10:02Z
2019-06-29T14:12:48Z,42.805,6.029,13.2992,4.60072,2469.844,2019-6-29T16:13:05Z
2019-06-29T14:15:51Z,42.805,6.029,13.2993,4.60039,2469.867,2019-6-29T16:16:08Z
2019-06-29T14:18:54Z,42.805,6.029,13.2978,4.60054,2469.83,2019-6-29T16:19:11Z
2019-06-29T14:21:57Z,42.805,6.029,13.2984,4.60072,2469.844,2019-6-29T16:22:14Z
2019-06-29T14:25:00Z,42.805,6.029,13.2970,4.60077,2469.83,2019-6-29T16:25:17Z
2019-06-29T14:28:03Z,42.805,6.029,13.2982,4.60034,2469.839,2019-6-29T16:28:20Z
2019-06-29T14:31:06Z,42.805,6.029,13.2971,4.60017,2469.844,2019-6-29T16:31:23Z
2019-06-29T14:34:09Z,42.805,6.029,13.2968,4.60028,2469.853,2019-6-29T16:34:26Z
2019-06-29T14:37:12Z,42.805,6.029,13.2993,4.60082,2469.83,2019-6-29T16:37:29Z
2019-06-29T14:40:15Z,42.805,6.029,13.2968,4.60059,2469.853,2019-6-29T16:40:32Z
2019-06-29T14:43:18Z,42.805,6.029,13.2982,4.60066,2469.876,2019-6-29T16:43:35Z
2019-06-29T14:46:21Z,42.805,6.029,13.2974,4.60006,2469.83,2019-6-29T16:46:38Z
2019-06-29T14:49:23Z,42.805,6.029,13.2986,4.60030,2469.853,2019-6-29T16:49:41Z
2019-06-29T14:52:26Z,42.805,6.029,13.2982,4.60064,2469.853,2019-6-29T16:52:44Z
2019-06-29T14:55:29Z,42.805,6.029,13.2979,4.60045,2469.844,2019-6-29T16:55:47Z
2019-06-29T14:58:32Z,42.805,6.029,13.2993,4.60055,2469.89,2019-6-29T16:58:49Z
2019-06-29T15:01:35Z,42.805,6.029,13.2998,4.60027,2469.844,2019-6-29T17:01:52Z
2019-06-29T15:04:38Z,42.805,6.029,13.2971,4.60021,2469.89,2019-6-29T17:04:55Z
2019-06-29T15:07:41Z,42.805,6.029,13.2970,4.60019,2469.853,2019-6-29T17:07:58Z
2019-06-29T15:10:44Z,42.805,6.029,13.2994,4.60053,2469.89,2019-6-29T17:11:01Z
2019-06-29T15:13:47Z,42.805,6.029,13.2972,4.60034,2469.9,2019-6-29T17:14:04Z